This demonstration page uses our WeatherBlox Daily Observations layout. Learn more.

Left ArrowRight Arrow

Hourly Observations for June 19, 2017

Temp ( °F °C ) Dew Point ( °F °C ) Humidity (%) Winds ( mph kmh ) Pressure ( in mb ) Visibility ( mi km ) Precip ( " mm )
12:59 am 00:59 Mostly Clear 79 26.1 72 22.2 79 79 SSW 10 17 29.96 1014 10 16 0.00 0.00
1:59 am 01:59 Mostly Clear 79 26.1 72 22.2 79 79 SSW 12 19 29.96 1014 10 16 0.00 0.00
2:59 am 02:59 Mostly Clear 78 25.6 72 22.2 82 82 SSW 10 17 29.96 1015 10 16 0.00 0.00
3:59 am 03:59 Mostly Clear 78 25.6 72 22.2 82 82 SSW 8 13 29.96 1015 9 14 0.00 0.00
4:59 am 04:59 Mostly Clear 77 25 72 22.2 85 85 SSW 9 15 29.96 1014 9 14 0.00 0.00
5:59 am 05:59 Mostly Cloudy 78 25.6 73 22.8 85 85 SW 8 13 29.98 1015 8 13 0.00 0.00
6:59 am 06:59 Mostly Cloudy 78 25.6 73 22.8 85 85 SSW 13 20 29.98 1015 8 13 0.00 0.00
7:59 am 07:59 Mostly Cloudy 80 26.7 73 22.8 79 79 SSW 12 19 29.98 1015 8 13 0.00 0.00
8:22 am 08:22 Mostly Cloudy with Fog 81 27 N/A N/A S 12 19 29.97 1015 1 1 0.00 0.00
8:25 am 08:25 Mostly Cloudy 81 27.2 73 22.8 77 77 S 10 17 29.97 1015 8 13 0.00 0.00
8:59 am 08:59 Mostly Cloudy 81 27.2 73 22.8 77 77 SW 13 20 29.98 1015 8 13 0.00 0.00
9:59 am 09:59 Mostly Cloudy 84 28.9 73 22.8 70 70 SSW 13 20 29.97 1015 8 13 0.00 0.00
10:59 am 10:59 Mostly Cloudy 86 30 72 22.2 63 63 SW 12 19 29.98 1015 8 13 0.00 0.00
11:59 am 11:59 Mostly Cloudy 88 31.1 73 22.8 61 61 SSW 10 17 29.98 1015 9 14 0.00 0.00
12:59 pm 12:59 Mostly Cloudy 89 31.7 72 22.2 57 57 SSW 13 20 29.96 1015 10 16 0.00 0.00
1:59 pm 13:59 Mostly Cloudy 91 32.8 73 22.8 56 56 SSW 10 17 29.93 1013 10 16 0.00 0.00
2:59 pm 14:59 Mostly Cloudy 91 32.8 72 22.2 54 54 SW 15 24 29.90 1013 10 16 0.00 0.00
3:59 pm 15:59 Mostly Cloudy 91 32.8 72 22.2 54 54 SSW 13 20 29.89 1012 10 16 0.00 0.00
4:59 pm 16:59 Mostly Cloudy 89 31.7 70 21.1 53 53 SSW 13 20 29.89 1012 10 16 0.00 0.00
5:59 pm 17:59 Cloudy with Thunderstorms 87 30.6 71 21.7 59 59 SSW 17 28 29.89 1012 10 16 0.00 0.00
6:16 pm 18:16 Cloudy 87 30.6 72 22.2 61 61 SSW 13 20 29.88 1012 10 16 0.00 0.00
6:59 pm 18:59 Mostly Cloudy 85 29.4 73 22.8 68 68 SSW 13 20 29.88 1012 10 16 0.00 0.03
7:59 pm 19:59 Mostly Cloudy 83 28.3 71 21.7 67 67 SSW 13 20 29.92 1013 10 16 0.00 0.00
8:59 pm 20:59 Mostly Cloudy 82 27.8 73 22.8 74 74 SSW 14 22 29.95 1014 10 16 0.00 0.00
9:59 pm 21:59 Mostly Cloudy 82 27.8 59 15 46 46 SSW 12 19 29.96 1014 10 16 0.00 0.00
10:59 pm 22:59 Mostly Cloudy 82 27.8 73 22.8 74 74 SW 10 17 29.97 1015 10 16 0.00 0.00
11:59 pm 23:59 Mostly Cloudy 81 27.2 73 22.8 77 77 SW 17 28 29.97 1015 10 16 0.00 0.00

Powered by AerisWeather